Voltar ao catálogo

SHIJIAN 6 01A

SJ-6 01A

AtivoCiênciaSSO
NORAD 28413·PAYLOAD·🇨🇳 China

Lançado Sep 8, 2004 de Taiyuan Satellite Launch Center

Loading…

Próximas Passagens (próximas 24 horas)

TLE

AtualizadoSource: Space-Track

Época: Sep 13, 2026, 15:51 UTC

1 28413U 04035A   26256.66047477  .00005226  00000-0  25241-3 0  9994
2 28413  97.5817 284.0498 0006060 172.5250 187.6075 15.19075605200898

Acompanhe SHIJIAN 6 01A em tempo real com AllMySat

Download on the App Store